sat.trackr.live / text

‹ back to catalog

STARLINK-36501

NORAD 67327 · 2026-002Y

PAYLOAD ACTIVE UNKNOWN

§ Identity

Operator
Country
US
Launch date
2026-01-04
Launch site
AFETR
Launch vehicle
Mass (kg)
RCS (m²)

Purposes: comms

External: N2YO · Heavens-Above · Gunter

§ Orbital elements

Epoch: 2026-09-19T10:27:45.461376Z

Period
94.27 min
Inclination
43.0004°
Eccentricity
0.0001371
Mean motion
15.27583097 rev/d
Perigee alt
482.1 km
Apogee alt
484.0 km
Semi-major
6,861.2 km
B*
9.4002e-5
RAAN
310.7606°
Arg perigee
276.8019°
Mean anomaly
83.2676°
Rev number
4,071

§ Raw data

STARLINK-365011 67327U 26002Y   26262.43594284  .00002326  00000+0  94002-4 0  99932 67327  43.0004 310.7606 0001371 276.8019  83.2676 15.27583097 40717

JSON: /api/v1/satellites/67327 · /tle

For live sub-satellite position, see the globe view (requires WebGL).

§ Visibility from observer

Set your observer location to see the next 7 days of passes ≥ 10°. The values pass through the URL so the page stays shareable.

No JS? Fill the form by hand. The geolocation button needs JavaScript.